DW4338 Bergen NO current weather conditions

sailwx.info

Wind from 242

Air temperature 13.3° C
Dewpoint 10.5° C

Last reported at 2014-Sep-02 18:55 UTC.
Time now 2014-Sep-02 19:11 UTC

Location: N 60°31' E 004°54'.
View on Google Maps.

See reports from other nearby stations

  
Tides and Currents Weather Stations Pressure Air Temp Water Temp Dewpoint Dewpoint Depression Visibility Wind Speed Wind Dir Waves Ship Positions
date/time (UTC)wind fromknots sea level pressurealtimeterstation pressurevisibilityair tempwater tempwave heightnotes
2014-Sep-02 18:55 242 13.3
2014-Sep-02 18:40 242 0 gusting 6 13.9
2014-Sep-02 18:25 242 2 gusting 7 13.9
2014-Sep-02 18:10 242 1 gusting 7 13.9
2014-Sep-02 17:55 242 6 gusting 11 13.9
2014-Sep-02 17:39 242 6 gusting 13 13.9
2014-Sep-02 17:24 242 6 gusting 18 13.9
2014-Sep-02 17:09 250 8 gusting 15 14.4
2014-Sep-02 16:54 210 13 gusting 23 14.4
2014-Sep-02 16:39 247 8 gusting 16 13.9
2014-Sep-02 16:24 248 10 gusting 19 14.4
2014-Sep-02 16:08 252 11 gusting 20 14.4
2014-Sep-02 15:53 248 8 gusting 19 14.4
2014-Sep-02 15:38 258 11 gusting 19 14.4
2014-Sep-02 15:23 214 5 gusting 19 14.4
2014-Sep-02 15:08 221 8 gusting 21 14.4
2014-Sep-02 14:53 209 7 gusting 14 14.4
2014-Sep-02 14:38 213 7 gusting 17 14.4
2014-Sep-02 14:22 213 12 gusting 19 14.4
2014-Sep-02 14:07 169 8 gusting 17 14.4
2014-Sep-02 13:52 174 6 gusting 21 14.4
2014-Sep-02 13:37 225 7 gusting 14 14.4
2014-Sep-02 13:21 224 11 gusting 19 14.4
2014-Sep-02 13:07 219 6 gusting 16 14.4
2014-Sep-02 12:51 215 6 gusting 18 14.4
2014-Sep-02 12:36 203 7 gusting 14 14.4
2014-Sep-02 12:21 196 6 gusting 19 14.4
2014-Sep-02 12:05 202 6 gusting 19 14.4
2014-Sep-02 11:51 210 6 gusting 19 14.4
2014-Sep-02 11:36 194 13 gusting 20 14.4
2014-Sep-02 11:20 194 8 gusting 19 14.4
2014-Sep-02 11:04 166 9 gusting 19 14.4
2014-Sep-02 10:50 157 8 gusting 17 14.4
2014-Sep-02 10:34 158 8 gusting 19 13.9
2014-Sep-02 10:20 148 9 gusting 19 13.9
2014-Sep-02 10:04 150 6 gusting 18 13.9
2014-Sep-02 09:49 155 6 gusting 19 13.9
2014-Sep-02 09:33 147 4 gusting 14 13.9
2014-Sep-02 09:19 144 6 gusting 13 13.9
2014-Sep-02 09:04 140 5 gusting 13 13.3
2014-Sep-02 08:49 137 5 gusting 16 13.3
2014-Sep-02 08:34 125 5 gusting 15 13.3
2014-Sep-02 08:18 117 6 gusting 15 13.3
2014-Sep-02 08:02 115 4 gusting 16 12.8
2014-Sep-02 07:48 097 2 gusting 9 12.8
2014-Sep-02 07:33 097 5 gusting 7 12.2
2014-Sep-02 07:18 097 1 gusting 11 12.2
2014-Sep-02 07:02 098 6 gusting 12 12.2
2014-Sep-02 06:47 096 6 gusting 13 12.2
2014-Sep-02 06:32 094 8 gusting 12 12.2
2014-Sep-02 06:17 094 4 gusting 13 11.7
2014-Sep-02 06:02 092 7 gusting 16 11.7
2014-Sep-02 05:47 094 8 gusting 13 11.7
2014-Sep-02 05:32 088 3 gusting 10 11.7
2014-Sep-02 05:16 088 5 gusting 10 11.7
2014-Sep-02 05:01 087 8 gusting 13 11.7
2014-Sep-02 04:46 084 5 gusting 11 11.7
2014-Sep-02 04:31 043 7 gusting 13 11.7
2014-Sep-02 04:16 360 4 gusting 8 11.7
2014-Sep-02 04:00 360 5 gusting 9 11.7
2014-Sep-02 03:45 315 6 gusting 9 11.7
2014-Sep-02 03:30 315 4 gusting 7 11.7
2014-Sep-02 03:15 315 2 gusting 4 11.7
2014-Sep-02 03:00 315 0 gusting 6 11.7
2014-Sep-02 02:45 315 0 gusting 2 11.7
2014-Sep-02 02:30 315 2 gusting 8 11.7
2014-Sep-02 02:13 315 11.7
2014-Sep-02 01:59 315 2 gusting 6 11.7
2014-Sep-02 01:43 315 2 gusting 6 11.7
2014-Sep-02 01:29 315 2 gusting 5 11.7
2014-Sep-02 01:14 315 2 gusting 5 11.7
2014-Sep-02 00:59 315 0 gusting 3 11.1
2014-Sep-02 00:43 315 2 gusting 5 11.1
2014-Sep-02 00:27 315 0 gusting 5 11.1
2014-Sep-02 00:13 314 6 gusting 8 11.1
2014-Sep-01 23:58 314 1 gusting 7 11.1
2014-Sep-01 23:43 314 3 gusting 5 11.1
2014-Sep-01 23:28 314 11.7
2014-Sep-01 23:12 314 4 gusting 10 11.7
2014-Sep-01 22:58 314 11.7
2014-Sep-01 22:42 314 11.7
2014-Sep-01 22:27 314 5 gusting 11 11.7
2014-Sep-01 22:12 314 6 gusting 13 11.7
2014-Sep-01 21:57 314 7 gusting 14 12.2
2014-Sep-01 21:41 314 8 gusting 13 12.2
2014-Sep-01 21:26 311 11 gusting 15 11.7
2014-Sep-01 21:10 304 12 gusting 27 12.2
2014-Sep-01 20:56 284 19 gusting 27 12.8
2014-Sep-01 20:41 239 7 gusting 21 13.3
2014-Sep-01 20:26 208 10 gusting 24 13.3
2014-Sep-01 20:11 263 11 gusting 26 13.3
2014-Sep-01 19:55 204 13 gusting 26 13.3
2014-Sep-01 19:40 210 12 gusting 23 13.3
2014-Sep-01 19:25 192 14 gusting 27 13.3
2014-Sep-01 19:10 227 15 gusting 31 13.9
2014-Sep-01 18:54 150 14 gusting 33 13.9
2014-Sep-01 18:40 190 15 gusting 33 13.9
2014-Sep-01 18:24 144 12 gusting 33 13.3
2014-Sep-01 18:09 169 15 gusting 29 13.3
2014-Sep-01 17:54 150 16 gusting 44 12.8
2014-Sep-01 17:39 151 22 gusting 46 13.3
2014-Sep-01 17:24 140 19 gusting 51 13.3
2014-Sep-01 17:09 196 10 gusting 21 12.8
2014-Sep-01 16:53 210 12 gusting 26 12.8
2014-Sep-01 16:38 197 14 gusting 33 12.2
2014-Sep-01 16:23 216 13 gusting 42 12.2
2014-Sep-01 16:08 262 24 gusting 46 12.2
2014-Sep-01 15:53 217 19 gusting 37 13.3
2014-Sep-01 15:38 134 23 gusting 53 13.9
2014-Sep-01 15:22 146 21 gusting 53 14.4
2014-Sep-01 15:07 144 16 gusting 39 13.9
2014-Sep-01 14:51 127 19 gusting 41 14.4
2014-Sep-01 14:36 130 15 gusting 40 14.4
2014-Sep-01 14:22 180 19 gusting 46 15.0
2014-Sep-01 14:06 171 18 gusting 33 15.0
2014-Sep-01 13:51 217 18 gusting 33 15.6
2014-Sep-01 13:36 178 18 gusting 44 15.0
2014-Sep-01 13:21 213 14 gusting 33 15.0
2014-Sep-01 13:06 182 19 gusting 33 15.0
2014-Sep-01 12:50 200 18 gusting 33 15.0
2014-Sep-01 12:36 131 18 gusting 40 15.0
2014-Sep-01 12:20 126 18 gusting 39 15.0
2014-Sep-01 12:05 154 17 gusting 32 15.0
2014-Sep-01 11:49 138 19 gusting 41 15.0
2014-Sep-01 11:35 163 20 gusting 50 15.0
2014-Sep-01 11:20 209 16 gusting 41 15.0
2014-Sep-01 11:04 220 15 gusting 46 14.4
2014-Sep-01 10:49 130 18 gusting 46 15.0
2014-Sep-01 10:34 134 27 gusting 53 15.6
2014-Sep-01 10:19 227 19 gusting 40 15.6
2014-Sep-01 10:04 134 25 gusting 50 16.1
2014-Sep-01 09:49 121 29 gusting 50 15.6
2014-Sep-01 09:34 188 23 gusting 58 15.6
2014-Sep-01 09:18 141 22 gusting 54 15.6
2014-Sep-01 09:03 116 22 gusting 42 15.6
2014-Sep-01 08:48 100 26 gusting 49 15.6
2014-Sep-01 08:32 128 22 gusting 49 15.0
2014-Sep-01 08:18 140 23 gusting 46 15.0
2014-Sep-01 07:47 129 26 gusting 59 15.0
2014-Sep-01 07:32 120 26 gusting 44 15.0
2014-Sep-01 07:16 074 21 gusting 40 15.0
2014-Sep-01 07:01 132 18 gusting 39 15.0
2014-Sep-01 06:47 125 15 gusting 33 15.0
2014-Sep-01 06:31 137 16 gusting 27 15.0
2014-Sep-01 06:16 137 17 gusting 32 14.4
2014-Sep-01 06:00 144 16 gusting 32 14.4
2014-Sep-01 05:46 142 17 gusting 30 15.0
2014-Sep-01 05:31 119 17 gusting 32 15.0
2014-Sep-01 05:16 130 13 gusting 34 15.0
2014-Sep-01 05:01 150 18 gusting 33 15.0
2014-Sep-01 04:44 142 18 gusting 30 15.0
2014-Sep-01 04:30 133 14 gusting 24 14.4
2014-Sep-01 04:14 115 11 gusting 26 14.4
2014-Sep-01 04:00 140 12 gusting 27 14.4
2014-Sep-01 03:44 114 15 gusting 26 14.4
2014-Sep-01 03:30 142 13 gusting 26 15.0
2014-Sep-01 03:14 120 12 gusting 25 15.0
2014-Sep-01 02:59 130 17 gusting 28 15.0
2014-Sep-01 02:43 125 13 gusting 28 15.0
2014-Sep-01 02:29 107 13 gusting 26 15.0
2014-Sep-01 02:14 129 13 gusting 22 15.0
2014-Sep-01 01:59 099 12 gusting 26 15.0
2014-Sep-01 01:43 128 12 gusting 26 15.0
2014-Sep-01 01:28 155 14 gusting 27 15.0
2014-Sep-01 01:13 098 13 gusting 26 15.0
2014-Sep-01 00:58 115 13 gusting 25 15.0
2014-Sep-01 00:43 106 16 gusting 26 15.0
2014-Sep-01 00:28 142 16 gusting 32 15.0
2014-Sep-01 00:12 151 18 gusting 33 15.0
2014-Aug-31 23:57 139 17 gusting 32 15.0
2014-Aug-31 23:42 136 18 gusting 27 15.0
2014-Aug-31 23:27 130 14 gusting 26 15.0
2014-Aug-31 23:12 144 13 gusting 26 15.0
2014-Aug-31 22:57 114 16 gusting 27 14.4
2014-Aug-31 22:41 155 13 gusting 25 14.4
2014-Aug-31 22:26 113 8 gusting 21 15.0
2014-Aug-31 22:10 120 9 gusting 17 15.0
2014-Aug-31 21:55 128 10 gusting 23 15.0
2014-Aug-31 21:40 132 13 gusting 24 15.0
2014-Aug-31 21:25 127 10 gusting 25 15.0
2014-Aug-31 21:11 119 11 gusting 27 15.0
2014-Aug-31 20:54 202 6 gusting 17 15.6
2014-Aug-31 20:40 209 13 gusting 29 15.6
2014-Aug-31 20:24 198 13 gusting 24 15.6
2014-Aug-31 20:09 159 7 gusting 23 15.6
2014-Aug-31 19:54 203 10 gusting 19 16.1
2014-Aug-31 19:39 205 12 gusting 19 16.1
2014-Aug-31 19:23 136 13 gusting 27 16.1
2014-Aug-31 19:09 227 14 gusting 31 16.7